Regional Weather Roundup
Issued by NWS Austin/San Antonio, TX

Home | Current Version | Previous Version | Text Only | Print | Product List | Glossary On
Versions: 1 2 3 4 5 6 7 8 9 10 11 12 13 14 15 16 17 18 19 20 21 22 23 24 25 26 27 28 29 30 31 32 33 34 35 36 37 38 39 40 41 42 43 44 45 46 47 48 49 50
000
ASUS44 KEWX 241810
RWREWX
SOUTH TEXAS REGIONAL WEATHER ROUNDUP
NATIONAL WEATHER SERVICE AUSTIN/SAN ANTONIO TX
100 PM CDT SAT AUG 24 2019

NOTE: "FAIR" INDICATED FEW OR NO CLOUDS BELOW 12,000 FEET WITH NO
SIGNIFICANT WEATHER AND/OR OBSTRUCTIONS TO VISIBILITY.

* - THESE STATIONS ARE NOT NWS OR FAA STATIONS...AND ARE NOT SUBJECT
    TO NWS AND FAA QUALITY CONTROL.

TXZ171-172-183>190-241900-
TEXAS HILL COUNTRY AND EDWARDS PLATEAU

CITY           SKY/WX    TMP DP  RH WIND       PRES   REMARKS
JUNCTION       MOSUNNY   89  72  56 VRB3      29.96F HX  96
6HR MIN TEMP:  75; 6HR MAX TEMP:  90;

*LLANO         MOSUNNY   88  72  58 E3        29.98F HX  94
BURNET         MOSUNNY   88  70  55 CALM      29.97F HX  93
6HR MIN TEMP:  76; 6HR MAX TEMP:  89;

*HORSESHOE BAY MOSUNNY   90  70  51 CALM      29.94F HX  95
*KERRVILLE     SUNNY     85  72  64 CALM      29.96F HX  90
6HR MIN TEMP:  74; 6HR MAX TEMP:  85;

*FREDERICKSBRG MOSUNNY   82  69  64 NE3       29.98S
6HR MIN TEMP:  74; 6HR MAX TEMP:  83;

*ROCKSPRINGS   SUNNY     84  70  61 CALM      30.04F
*BOERNE        SUNNY     88  70  55 NE3       29.96F HX  92
*CASTROVILLE   MOSUNNY   92  68  44 SE5       29.92F HX  96
HONDO          MOSUNNY   93  70  46 SE10      29.92F HX  99
6HR MIN TEMP:  76; 6HR MAX TEMP:  93;

*UVALDE        MOSUNNY   89  71  53 S3        29.92F HX  95
6HR MIN TEMP:  73; 6HR MAX TEMP:  90;

DEL RIO        SUNNY     94  71  47 VRB7      29.88F HX 101
6HR MIN TEMP:  76; 6HR MAX TEMP:  94;

LAUGHLIN AFB   SUNNY     93  71  49 S3        29.90F HX  99
6HR MIN TEMP:  75; 6HR MAX TEMP:  93;

SPOFFORD       PTSUNNY   89  73  57 SE12      29.85F HX  97
6HR MIN TEMP:  74; 6HR MAX TEMP:  90;

*EAGLE PASS    PTSUNNY   93  70  46 E8        29.90F HX  99
CARRIZO SPRGS  MOSUNNY   90  73  58 SE5       29.89F HX  98
$$

TXZ173-191>194-202-209-217>225-228-241900-
CENTRAL AND SOUTH CENTRAL TEXAS

CITY           SKY/WX    TMP DP  RH WIND       PRES   REMARKS
GEORGETOWN     PTSUNNY   92  72  51 NE6       29.94F HX  99
6HR MIN TEMP:  75; 6HR MAX TEMP:  92;

AUSTIN/BERGSTM CLOUDY    90  73  57 CALM      29.91F HX  98
6HR MIN TEMP:  76; 6HR MAX TEMP:  91;

AUSTIN/MABRY   SUNNY     90  71  53 VRB5      29.93F HX  96
6HR MIN TEMP:  77; 6HR MAX TEMP:  91;

*AUSTIN/EXEC   SUNNY     88  72  58 S5        29.93F HX  94
*LAGO VISTA    PTSUNNY   86  73  63 CALM      29.96F HX  93
6HR MIN TEMP:  74; 6HR MAX TEMP:  87;

SAN MARCOS     SUNNY     92  73  53 CALM      29.92F HX 100
6HR MIN TEMP:  77; 6HR MAX TEMP:  93;

NEW BRAUNFELS  MOSUNNY   91  71  51 CALM      29.90F HX  97
6HR MIN TEMP:  76; 6HR MAX TEMP:  92;

RANDOLPH AFB   PTSUNNY   89  74  61 CALM      29.91F HX  97
6HR MIN TEMP:  77; 6HR MAX TEMP:  89;

SEGUIN         CLOUDY    89  72  57 CALM      29.94F HX  96
6HR MIN TEMP:  75; 6HR MAX TEMP:  89;

KELLY FIELD    PTSUNNY   91  72  53 W6        29.89F HX  98
6HR MIN TEMP:  79; 6HR MAX TEMP:  91;

SAN ANTONIO    PTSUNNY   91  73  55 VRB3      29.92F HX  99
6HR MIN TEMP:  78; 6HR MAX TEMP:  91;

STINSON FIELD  SUNNY     92  73  53 CALM      29.89F HX 100
6HR MIN TEMP:  80; 6HR MAX TEMP:  92;

PLEASANTON     MOSUNNY   92  73  52 NE3       29.90F HX 100
6HR MIN TEMP:  77; 6HR MAX TEMP:  92;

*LA GRANGE     MOSUNNY   94  73  49 E5        29.89F HX 102
6HR MIN TEMP:  76; 6HR MAX TEMP:  94;

*GIDDINGS      PTSUNNY   95  72  47 N6        29.92F HX 102
6HR MIN TEMP:  77; 6HR MAX TEMP:  96;

*GONZALES      CLOUDY    92  74  55 CALM      29.90F HX 102
6HR MIN TEMP:  76; 6HR MAX TEMP:  94;

$$

TXZ163>164-176>182-195>201-210>213-226-227-235-241900-
SOUTHEAST TEXAS

CITY           SKY/WX    TMP DP  RH WIND       PRES   REMARKS
COLLEGE STN    MOSUNNY   93  71  48 CALM      29.91F HX 100
6HR MIN TEMP:  77; 6HR MAX TEMP:  94;

*BRYAN         SUNNY     92  73  54 N3        29.92F HX 100
6HR MIN TEMP:  76; 6HR MAX TEMP:  94;

*CALDWELL      MOSUNNY   92  72  51 CALM      29.92F HX 100
6HR MIN TEMP:  74; 6HR MAX TEMP:  93;

*CROCKETT      PTSUNNY   88  72  58 E7        29.95F HX  94
*BRENHAM       MOSUNNY   93  72  49 S3        29.92S HX 100
6HR MIN TEMP:  75; 6HR MAX TEMP:  94;

HUNTSVILLE     CLOUDY    90  70  51 E5        29.93F HX  95
6HR MIN TEMP:  75; 6HR MAX TEMP:  92;

CONROE         PTSUNNY   89  75  63 S5        29.93F HX  99
6HR MIN TEMP:  75; 6HR MAX TEMP:  91;

HOUSTON BUSH   PTSUNNY   89  72  56 E8        29.92S HX  96
6HR MIN TEMP:  77; 6HR MAX TEMP:  92; 6HR PCP:  0.01;

HOUSTON HOBBY  PTSUNNY   89  73  59 VRB7      29.92F HX  97
6HR MIN TEMP:  79; 6HR MAX TEMP:  89;

*HOUSTON SW AP FAIR      87  75  66 NE3       29.93F HX  97
6HR MIN TEMP:  75; 6HR MAX TEMP:  87;

PEARLAND       FAIR      88  75  65 E9        29.94S HX  97
6HR MIN TEMP:  78; 6HR MAX TEMP:  88;

HOUSTON HOOKS  PTSUNNY   88  72  58 E7        29.92S HX  94
6HR MIN TEMP:  76; 6HR MAX TEMP:  90;

ELLINGTON FLD  PTSUNNY   88  73  62 SE8       29.92S HX  96
SUGAR LAND     FAIR      89  77  67 E5        29.92S HX 101
6HR MIN TEMP:  78; 6HR MAX TEMP:  90;

*HOUSTON EXEC  FAIR      91  73  55 VRB6      29.93S HX 100
*CLEVELAND MUN FAIR      86  77  74 SE3       29.94F HX  97
6HR MIN TEMP:  75; 6HR MAX TEMP:  87;

*WHARTON       MOSUNNY   90  72  56 SE6       29.93S HX  97
6HR MIN TEMP:  74; 6HR MAX TEMP:  90;

*COLUMBUS      PTSUNNY   95  72  46 SE9       29.92S HX 103
6HR MIN TEMP:  75; 6HR MAX TEMP:  96;

*EAGLE LAKE    SUNNY     94  76  54 E6        29.91  HX 107
6HR MIN TEMP:  77; 6HR MAX TEMP:  95;

$$

TXZ214>216-236>238-241900-
THE UPPER TEXAS COAST

CITY           SKY/WX    TMP DP  RH WIND       PRES   REMARKS
*ORANGE        CLOUDY    84  80  86 S7        29.94F HX  97
6HR MIN TEMP:  77; 6HR MAX TEMP:  86; 6HR PCP:  0.01;

PORT ARTHUR    CLOUDY    87  77  72 SE8       29.90F HX  99
6HR MIN TEMP:  79; 6HR MAX TEMP:  87; 6HR PCP: TRACE;

GALVESTON      FAIR      86  77  74 VRB5      29.93F HX  97
6HR MIN TEMP:  80; 6HR MAX TEMP:  86; 6HR PCP:  0.01;

ANGLETON       FAIR      86  76  71 E9        29.94S HX  96
6HR MIN TEMP:  76; 6HR MAX TEMP:  86; 6HR PCP: TRACE;

*BAY CITY      MOSUNNY   90  79  70 E7        29.94R HX 105
PALACIOS       RAIN      88  78  72 SE9       29.92S HX 101
6HR MIN TEMP:  81; 6HR MAX TEMP:  92; 6HR PCP:  0.02;

$$

TXZ229>234-239>247-241900-
TEXAS COASTAL BEND AND RIO GRANDE PLAINS

CITY           SKY/WX    TMP DP  RH WIND       PRES   REMARKS
VICTORIA       PTSUNNY   84  77  79 E13       29.90F HX  94
6HR MIN TEMP:  76; 6HR MAX TEMP:  94; 6HR PCP:  0.10;

*BEEVILLE      NOT AVBL
ROCKPORT       MOSUNNY   84  75  74 VRB5      29.90S HX  92
6HR MIN TEMP:  82; 6HR MAX TEMP:  89; 6HR PCP:  0.14;

*PORT ARANSAS  MOSUNNY   89  80  75 SE10      29.92S HX 107
6HR MIN TEMP:  83; 6HR MAX TEMP:  90;

*PORT LAVACA   PTSUNNY   91  80  68 SE10      29.92R HX 108
6HR MIN TEMP:  80; 6HR MAX TEMP:  93;

*INGLESIDE     MOSUNNY   94  79  62 SE10G17   29.89S THUNDER HX 111
CORPUS CHRISTI PTSUNNY   93  77  59 E14       29.88F HX 107
6HR MIN TEMP:  80; 6HR MAX TEMP:  96;

CORPUS NAS       N/A    N/A N/A N/A MISG      29.89S
*ROBSTOWN      SUNNY     96  72  46 NE5       29.88F HX 104
6HR MIN TEMP:  79; 6HR MAX TEMP:  96;

ALICE          PTSUNNY   96  72  45 CALM      29.87F HX 104
6HR MIN TEMP:  78; 6HR MAX TEMP:  98;

KINGSVILLE NAS PTSUNNY   97  73  45 CALM      29.87F HX 107
6HR MIN TEMP:  80; 6HR MAX TEMP:  97;

COTULLA        MOSUNNY   94  70  45 VRB5      29.88F HX 100
6HR MIN TEMP:  80; 6HR MAX TEMP:  95;

LAREDO         SUNNY     97  72  44 CALM      29.86F HX 105
6HR MIN TEMP:  80; 6HR MAX TEMP:  97;

$$

TXZ248>255-241900-
DEEP SOUTH TEXAS

CITY           SKY/WX    TMP DP  RH WIND       PRES   REMARKS
BROWNSVIL


USA.gov is the U.S. government's official web portal to all federal, state and local government web resources and services.